Regional Weather Roundup
Issued by NWS

Home | Current Version | Previous Version | Graphics & Text | Print | Product List | Glossary On
Versions: 1 2 3 4 5 6 7 8 9 10 11 12 13 14 15 16 17 18 19 20 21 22 23 24 25 26 27 28 29 30 31 32 33 34 35 36 37 38 39 40 41 42 43 44 45 46 47 48 49 50
000
ASUS43 KOAX 191010
RWRNE

WEATHER ROUNDUP FOR NEBRASKA
NATIONAL WEATHER SERVICE OMAHA NE
400 AM CST FRI JAN 19 2018

NOTES: SATELLITE DATA IS BEING USED TO AUGMENT CLOUD COVER ABOVE
       12000 FEET.
       "FAIR" INDICATES FEW OR NO CLOUDS BELOW 12,000 FEET WITH NO
       SIGNIFICANT WEATHER AND/OR OBSTRUCTIONS TO VISIBILITY.


NEZ001>004-019>022-054>056-191100-
NEBRASKA PANHANDLE

CITY           SKY/WX    TMP DP  RH WIND       PRES   REMARKS
SCOTTSBLUFF    CLOUDY    33  28  81 CALM      29.77F
ALLIANCE       CLOUDY    37  29  72 SW9       29.75S WCI  30
CHADRON        CLOUDY    36  29  75 SW10      29.66F WCI  28
GORDON         FAIR      40  30  67 SW10G16   29.67F WCI  34
KIMBALL        CLOUDY    40  21  45 W9        29.81F WCI  34
SIDNEY         CLOUDY    34  21  59 W9        29.78F WCI  27
$$

NEZ057>060-069>072-079>082-191100-
SOUTHWEST NEBRASKA

CITY           SKY/WX    TMP DP  RH WIND       PRES   REMARKS
NORTH PLATTE   PTCLDY    24  20  84 NW6       29.77F WCI  17
IMPERIAL       MOCLDY    31  23  72 W5        29.79F WCI  26
LEXINGTON      CLOUDY    29  24  82 NW6       29.77F WCI  23
MCCOOK         PTCLDY    30  21  69 W9        29.79F WCI  22
OGALLALA       MOCLDY    28  24  85 W8        29.78F WCI  20
$$

NEZ005>010-023>029-035>040-094-191100-
NORTH CENTRAL NEBRASKA

CITY           SKY/WX    TMP DP  RH WIND       PRES   REMARKS
VALENTINE      MOCLDY    38  30  73 SW7       29.65F WCI  33
AINSWORTH      PTCLDY    41  32  70 SW13      29.66F
BROKEN BOW     MOCLDY    36  25  64 W9        29.73F WCI  29
O`NEILL        CLOUDY    40  32  74 SW10      29.66F WCI  33
ORD            CLOUDY    27  24  89 SE3       29.71F
THEDFORD       PTCLDY    42  31  67 W5        29.72F
$$

NEZ041-046>049-061>064-073>077-083>087-191100-
SOUTH CENTRAL NEBRASKA

CITY           SKY/WX    TMP DP  RH WIND       PRES   REMARKS
GRAND ISLAND   CLOUDY    36  25  64 SW12      29.76F WCI  28
AURORA         CLOUDY    33  23  66 SW9       29.77F WCI  25
HASTINGS       CLOUDY    35  21  56 S6        29.78F WCI  30
HEBRON         CLOUDY    35  22  58 SW13G21   29.82F WCI  27
HOLDREGE       CLOUDY    36  24  61 W6        29.78F WCI  31
KEARNEY        CLOUDY    36  24  62 SW9       29.77F WCI  29
YORK           PTCLDY    32  25  74 SW10      29.78F WCI  24
$$

NEZ011>018-030>034-042>045-191100-
NORTHEAST NEBRASKA

CITY           SKY/WX    TMP DP  RH WIND       PRES   REMARKS
NORFOLK        CLOUDY    34  28  79 S7        29.71F WCI  28
ALBION         CLOUDY    33  27  80 SE6       29.72F WCI  27
BLAIR          CLOUDY    32  24  72 S8        29.78F WCI  25
COLUMBUS       CLOUDY    25  22  88 S3        29.77F
FREMONT        CLOUDY    29  24  82 SE5       29.78F WCI  23
TEKAMAH        CLOUDY    24  20  84 SE8       29.78F WCI  15
WAYNE          CLOUDY    33  32  97 S10       29.70F WCI  24
$$

NEZ050>053-065>068-078-088>093-191100-
SOUTHEAST NEBRASKA

CITY           SKY/WX    TMP DP  RH WIND       PRES   REMARKS
LINCOLN        CLOUDY    35  23  61 S7        29.82F WCI  29
OMAHA EPPLEY   CLOUDY    26  22  84 S9        29.81F WCI  17
BEATRICE       CLOUDY    33  26  73 S9        29.85F WCI  26
FALLS CITY     CLOUDY    35  23  61 SW12      29.88F WCI  27
NEBRASKA CITY  CLOUDY    37  27  67 SW18      29.82F WCI  26
PLATTSMOUTH    MOCLDY    32  25  75 S9        29.81F WCI  25
$$

NEZ044-045-051>053-067-191100-
OMAHA AREA

CITY           SKY/WX    TMP DP  RH WIND       PRES   REMARKS
OMAHA EPPLEY   CLOUDY    26  22  84 S9        29.81F WCI  17
BLAIR          CLOUDY    32  24  72 S8        29.78F WCI  25
FREMONT        CLOUDY    29  24  82 SE5       29.78F WCI  23
MILLARD        CLOUDY    26  22  83 SE5       29.81F WCI  21
OFFUTT AFB     CLOUDY    21  18  88 E3        29.81F
PLATTSMOUTH    MOCLDY    32  25  75 S9        29.81F WCI  25
WAHOO          FAIR      32  24  72 S7        29.79F WCI  26
$$




USA.gov is the U.S. government's official web portal to all federal, state and local government web resources and services.